Regional Weather Roundup
Issued by NWS

Home | Current Version | Previous Version | Graphics & Text | Print | Product List | Glossary On
Versions: 1 2 3 4 5 6 7 8 9 10 11 12 13 14 15 16 17 18 19 20 21 22 23 24 25 26 27 28 29 30 31 32 33 34 35 36 37 38 39 40 41 42 43 44 45 46 47 48 49 50
000
ASUS43 KDTX 241110
RWRMI
MICHIGAN HOURLY REGIONAL WEATHER ROUNDUP
NATIONAL WEATHER SERVICE DETROIT/PONTIAC MI
700 AM EDT MON APR 24 2017

NOTE: "FAIR" INDICATES FEW OR NO CLOUDS BELOW 12,000 FEET WITH NO
SIGNIFICANT WEATHER AND/OR OBSTRUCTION TO VISIBILITY.

MIZ047>049-052>055-059>063-066>070-074>076-081>083-241200-
SOUTHEAST LOWER MICHIGAN

CITY           SKY/WX    TMP DP  RH WIND       PRES   REMARKS
ADRIAN         CLEAR     39  34  82 NE6       30.06R WCI  35
ALMA           CLEAR     38  37  95 NE5       30.10R WCI  34
ANN ARBOR      CLEAR     39  36  89 N6        30.06S WCI  35
BAD AXE        CLEAR     36  34  92 E3        30.11S
CARO           CLEAR     36  34  91 CALM      30.09F
DETROIT        PTCLDY    41  36  82 NE6       30.08R
FLINT          CLEAR     38  35  89 E6        30.09S WCI  33
GROSSE ILE     CLEAR     42  39  89 NE9       30.06R
HILLSDALE      CLEAR     37  32  81 NE6       30.04R WCI  33
HOWELL         CLEAR     38  35  89 NE3       30.07R

CITY           SKY/WX    TMP DP  RH WIND       PRES   REMARKS
JACKSON        CLEAR     41  33  73 E5        30.06R
LAMBERTVILLE   CLEAR     40  38  90 NE6       30.06R
LANSING        CLEAR     37  33  85 NE5       30.08R WCI  33
LAPEER         FAIR      36  35  99 CALM      30.09R
MASON          CLEAR     38  37  96 CALM      30.07R
MONROE         CLEAR     40  37  87 NE5       30.06R
MT. CLEMENS    CLEAR     38  38 100 N3        30.07R
PONTIAC        PTCLDY    41  35  79 E3        30.07R
PORT HOPE        N/A     40  38  93 E12       30.11R WCI  33
PORT HURON     CLEAR     37  36  93 CALM      30.10R
TRI CITIES     CLEAR     39  37  92 E3        30.10S
MIDLAND        FAIR      39  36  89 CALM      30.10R
TROY           CLEAR     42  36  80 NE6       30.10R
SAGINAW HB     CLEAR     36  32  87 CALM      30.09S
$$
MIZ043>046-050>051-056>058-064>065-071>073-077>080-241200-
SOUTHWEST LOWER MICHIGAN

CITY           SKY/WX    TMP DP  RH WIND       PRES   REMARKS
BATTLE CREEK   CLEAR     42  41  96 CALM      30.05S
BENTON HARBOR  CLEAR     34  30  85 E5        30.02R WCI  30
BIG RAPIDS     CLEAR     39  34  82 SE7       30.08R WCI  34
COLDWATER      CLEAR     42  36  80 E3        30.04R
FREMONT        FAIR      40  36  83 E8        30.05S
HOLLAND        CLEAR     42  38  85 E7        30.05R
GRAND RAPIDS   PTCLDY    41  38  89 E8        30.05S
IONIA          FAIR      39  37  89 E8        30.07R WCI  34
KALAMAZOO      CLEAR     42  39  89 CALM      30.04S
LUDINGTON      CLEAR     38  34  85 E5        30.04S WCI  34
MARSHALL       CLEAR     40  39  98 CALM      30.05R
MOUNT PLEASANT CLEAR     36  34  91 CALM      30.09S
MUSKEGON       PTCLDY    42  37  82 E7        30.06R
SOUTH HAVEN    CLEAR     40  36  83 E5        30.03R
$$
MIZ016>042-241200-
NORTHERN LOWER MICHIGAN

CITY           SKY/WX    TMP DP  RH WIND       PRES   REMARKS
ALPENA         MOCLDY    36  33  89 E5        30.15R WCI  32
BEAVER ISLAND  CLEAR     33  30  87 E9        30.09S WCI  26
BELLAIRE       CLEAR     30  26  85 CALM      30.08F
CADILLAC       CLEAR     36  28  74 SE6       30.06R WCI  31
CHARLEVOIX     CLEAR     36  29  78 E12       30.10F WCI  27
FRANKFORT      CLEAR     39  29  66 SE5       30.04S
GAYLORD        CLEAR     33  25  72 SE8       30.08S WCI  26
GRAYLING       PTCLDY    30  24  79 E3        30.10R
HARBOR SPRINGS CLEAR     33  30  89 E14       30.10S WCI  23
HOUGHTON LAKE  CLEAR     33  27  78 E3        30.09R
MANISTEE       CLEAR     33  30  88 E7        30.05S WCI  27
OSCODA         CLEAR     38  35  87 E6        30.13S WCI  34
PELLSTON       CLEAR     33  27  78 E7        30.12S WCI  27
ROGERS CITY    PTCLDY    35  31  87 E9        30.16R WCI  28
TRAVERSE CITY  PTCLDY    34  26  72 CALM      30.06F
$$
MIZ007>008-015-241200-
EASTERN UPPER MICHIGAN

CITY           SKY/WX    TMP DP  RH WIND       PRES   REMARKS
KINROSS        CLEAR     33  25  72 E10       30.13S WCI  25
MACKINAC ISLAN CLEAR     34  28  80 E14G21    30.12R WCI  24
NEWBERRY       CLEAR     29  28  93 E5        30.11R WCI  24
S. S. MARIE    CLEAR     36  22  56 E8        30.13F WCI  30
MUNISING         N/A     31  24  75 CALM      30.09F
$$
MIZ004>006-011>014-085-241200-
CENTRAL UPPER MICHIGAN

CITY           SKY/WX    TMP DP  RH WIND       PRES   REMARKS
MANISTIQUE     CLEAR     28  26  95 E6        30.09S WCI  21
ESCANABA       PTCLDY    31  26  82 NE7       30.08F WCI  24
MENOMINEE      PTCLDY    35  31  85 E9        30.06F WCI  28
SAWYER-GWINN   PTCLDY    28  23  80 NE5       30.07S WCI  23
$$
MIZ001>003-009>011-084-241200-
WESTERN UPPER MICHIGAN

CITY           SKY/WX    TMP DP  RH WIND       PRES   REMARKS
IRON MOUNTAIN  CLOUDY    29  21  72 E5        30.04S WCI  24
HOUGHTON       CLOUDY    31  22  69 E12       30.05F WCI  22
COPPER HARBOR    N/A     34  26  72 SE5       30.10F WCI  30
IRONWOOD       CLOUDY    33  18  53 E9        29.96F WCI  25
$$

ABBREVIATIONS USED IN REMARKS
   TC - TEMPERATURE IN CELSIUS
  WCI - WIND CHILL INDEX
   HX - HEAT INDEX
  VSB - VISIBILITY




USA.gov is the U.S. government's official web portal to all federal, state and local government web resources and services.